Tracking 25964 objects as of 11-Aug-2022
HD Live streaming from Space Station
objects crossing your sky now

GP-B

Track GP-B now!
10-day predictions
GP-B is classified as:


NORAD ID: 28230
Int'l Code: 2004-014A
Perigee: 637.9 km
Apogee: 640.7 km
Inclination: 89.8 °
Period: 97.4 minutes
Semi major axis: 7010 km
RCS: 10.7347 m2 (large)
Launch date: April 20, 2004
Source: United States (US)
Launch site: AIR FORCE WESTERN TEST RANGE (AFWTR)
aabbcc
Your satellite tracking list
Your tracking list is empty




NASA's NSSDC Master Catalog

Two Line Element Set (TLE):
1 28230U 04014A   22222.32989190  .00000366  00000-0  47201-4 0  9998
2 28230  89.8119  80.4242 0002022  81.6218 278.5234 14.79097163444117
Source of the keplerian elements: AFSPC